This is the latest recevied weather packets stored in our database for station/object N2PUI. If no packets are shown the sender has not sent any weather packets the latest 10 day(s).
| Time | Temp. | Humidity | Pressure | Rain* | Wind** | Luminosity | Snow |
|---|---|---|---|---|---|---|---|
| 1777738449 | 8.89° C | 45% | 1014.3 hPa | 0 mm | - | 216 W/m² | - |
| 1777738148 | 9.44° C | 46% | 1014.1 hPa | 0 mm | - | 969 W/m² | - |
| 1777737845 | 8.33° C | 47% | 1014.4 hPa | 0 mm | - | 183 W/m² | - |
| 1777737544 | 8.89° C | 46% | 1014.3 hPa | 0 mm | - | 228 W/m² | - |
| 1777737241 | 8.89° C | 45% | 1014.1 hPa | 0 mm | - | 190 W/m² | - |
| 1777736937 | 8.89° C | 45% | 1014.2 hPa | 0 mm | - | 887 W/m² | - |
| 1777736026 | 7.78° C | 47% | 1014.3 hPa | 0 mm | - | 881 W/m² | - |
| 1777735723 | 7.78° C | 47% | 1014.3 hPa | 0 mm | - | 916 W/m² | - |
| 1777735420 | 8.33° C | 46% | 1014 hPa | 0 mm | - | 675 W/m² | - |
| 1777735118 | 7.78° C | 46% | 1014.4 hPa | 0 mm | - | 890 W/m² | - |
| 1777734814 | 7.78° C | 45% | 1014.2 hPa | 0 mm | - | 260 W/m² | - |
| 1777734512 | 8.33° C | 48% | 1014.3 hPa | 0 mm | - | 966 W/m² | - |
| 1777734208 | 8.33° C | 48% | 1014.1 hPa | 0 mm | - | 879 W/m² | - |
| 1777733904 | 7.78° C | 48% | 1014.4 hPa | 0 mm | - | 838 W/m² | - |
| 1777733601 | 7.22° C | 47% | 1014.6 hPa | 0 mm | - | 575 W/m² | - |
| 1777733298 | 7.22° C | 51% | 1014.2 hPa | 0 mm | - | 157 W/m² | - |
| 1777732995 | 7.78° C | 47% | 1014.3 hPa | 0 mm | - | 907 W/m² | - |
| 1777732691 | 8.33° C | 49% | 1014.3 hPa | 0 mm | - | 468 W/m² | - |
| 1777732388 | 7.22° C | 55% | 1014.3 hPa | 0 mm | - | 342 W/m² | - |
| 1777732086 | 7.22° C | 55% | 1014.5 hPa | 0 mm | - | 857 W/m² | - |
| 1777731783 | 6.67° C | 54% | 1014.4 hPa | 0 mm | - | 801 W/m² | - |
| 1777731479 | 7.22° C | 57% | 1014.3 hPa | 0 mm | - | 864 W/m² | - |
| 1777731178 | 8.33° C | 57% | 1014.3 hPa | 0 mm | - | 651 W/m² | - |
| 1777730875 | 7.22° C | 60% | 1014.4 hPa | 0 mm | - | 779 W/m² | - |
| 1777730573 | 7.22° C | 64% | 1014.5 hPa | 0 mm | - | 741 W/m² | - |
* Rain latest hour (hover to see other rain measurements)
** Current wind speed in m/s (hover to see current wind gust speed)